Weather History for Daggett-Barstow, CA

Change the Weather History Date:

Friday, May 17, 2013

  Actual Average Record
Temperature  
Mean Temperature 74 °F -  
Max Temperature 84 °F 89 °F 103 °F (1970)
Min Temperature 64 °F 59 °F 43 °F (1962)
Cooling Degree Days 9    
Growing Degree Days 24 (Base 50)    
Moisture  
Dew Point 40 °F    
Average Humidity 33    
Maximum Humidity 45    
Minimum Humidity 16    
Precipitation  
Precipitation 0.00 in - - ()
Sea Level Pressure  
Sea Level Pressure 29.79 in    
Wind  
Wind Speed 23 mph (WSW)    
Max Wind Speed 34 mph    
Max Gust Speed 44 mph    
Visibility 10 miles    
Events      
Averages and records for this station are not official NWS values.
T = Trace of Precipitation, MM = Missing Value Source: NWS Daily Summary

Daily Weather History Graph

Daily Weather History Graph

Search for Another Location

Airport:

Trip Planner

Search our weather history database for the weather conditions in past years. The results will help you decide how hot, cold, wet, or windy it might be!

Date:

Astronomy

May. 17, 2013 Rise Set
Actual Time 5:42 AM PDT 7:45 PM PDT
Civil Twilight 5:14 AM PDT 8:13 PM PDT
Nautical Twilight 4:39 AM PDT 8:47 PM PDT
Astronomical Twilight 4:02 AM PDT 9:24 PM PDT
Moon 12:12 PM PDT (5/17) 12:46 AM PDT (5/17)
Length of Visible Light 14h 59m
Length of Day
14h 03m
Waxing Crescent, 46% of the Moon is Illuminated
May 17
Waxing Crescent
May 17
First Quarter
May 24
Full
May 31
Last Quarter
Jun 8
New

Hourly Weather History & Observations

Time (PDT) Temp. Dew Point Humidity Pressure Visibility Wind Dir Wind Speed Gust Speed Precip Events Conditions
12:50 AM 68.0 °F 37.9 °F 33% 29.76 in 10.0 mi WSW 24.2 mph 34.5 mph N/A   Clear
1:50 AM 66.9 °F 39.0 °F 36% 29.75 in 10.0 mi WSW 23.0 mph 33.4 mph N/A   Clear
2:50 AM 66.0 °F 39.9 °F 38% 29.75 in 10.0 mi WSW 17.3 mph 23.0 mph N/A   Clear
3:50 AM 66.0 °F 41.0 °F 40% 29.76 in 10.0 mi SW 15.0 mph 21.9 mph N/A   Clear
4:50 AM 64.9 °F 42.1 °F 43% 29.76 in 10.0 mi SW 24.2 mph 29.9 mph N/A   Clear
5:50 AM 64.0 °F 42.1 °F 45% 29.78 in 10.0 mi SW 19.6 mph 26.5 mph N/A   Clear
6:50 AM 64.9 °F 42.1 °F 43% 29.80 in 10.0 mi SW 21.9 mph 31.1 mph N/A   Clear
7:50 AM 66.0 °F 42.1 °F 42% 29.81 in 10.0 mi WSW 27.6 mph 32.2 mph N/A   Clear
8:50 AM 68.0 °F 42.1 °F 39% 29.82 in 10.0 mi WSW 25.3 mph 35.7 mph N/A   Clear
9:50 AM 73.0 °F 42.1 °F 33% 29.82 in 10.0 mi WSW 24.2 mph 34.5 mph N/A   Clear
10:50 AM 75.0 °F 41.0 °F 29% 29.83 in 10.0 mi WSW 20.7 mph 32.2 mph N/A   Clear
11:50 AM 77.0 °F 39.0 °F 25% 29.81 in 10.0 mi WSW 23.0 mph 28.8 mph N/A   Clear
12:50 PM 81.0 °F 37.0 °F 21% 29.79 in 10.0 mi WSW 24.2 mph 29.9 mph N/A   Clear
2:50 PM 82.9 °F 35.1 °F 18% 29.76 in 10.0 mi West 23.0 mph 33.4 mph N/A   Clear
3:50 PM 84.9 °F 34.0 °F 16% 29.74 in 10.0 mi West 27.6 mph 38.0 mph N/A   Clear
4:50 PM 82.9 °F 34.0 °F 17% 29.74 in 10.0 mi West 25.3 mph 36.8 mph N/A   Clear
5:50 PM 80.1 °F 37.0 °F 21% 29.76 in 10.0 mi West 29.9 mph 38.0 mph N/A   Clear
6:50 PM 75.9 °F 39.9 °F 27% 29.78 in 10.0 mi WSW 34.5 mph 43.7 mph N/A   Clear
7:50 PM 73.0 °F 41.0 °F 31% 29.79 in 10.0 mi WSW 24.2 mph 36.8 mph N/A   Clear
8:50 PM 70.0 °F 45.0 °F 41% 29.82 in 10.0 mi SW 18.4 mph 27.6 mph N/A   Clear
9:50 PM 68.0 °F 44.1 °F 42% 29.83 in 10.0 mi SW 24.2 mph 31.1 mph N/A   Clear
10:50 PM 66.9 °F 44.1 °F 44% 29.85 in 10.0 mi SW 20.7 mph 28.8 mph N/A   Clear
11:50 PM 66.9 °F 41.0 °F 39% 29.83 in 10.0 mi SW 24.2 mph 36.8 mph N/A   Clear